Location: Observatorio Las Palmas
(29.0667°N, 110.9333°W)
Time: 22:05:40
(UTC-07:00)

Hubble Space Telescope - Visible Passes

Search period start: 22 February 2017 00:00
Search period end: 04 March 2017 00:00
Orbit: 538 x 542 km, 28.5° (Epoch: 21 February)

Date Brightness Start Highest point End Pass type
(mag) Time Alt. Az. Time Alt. Az. Time Alt. Az.
22 Feb 2.4 19:20:56 10° SSW 19:23:57 20° SSE 19:25:09 17° SE visible
23 Feb 2.2 19:10:32 10° SSW 19:13:55 24° SSE 19:15:59 17° ESE visible
23 Feb 3.7 20:50:48 10° WSW 20:51:22 14° WSW 20:51:22 14° WSW visible
24 Feb 1.9 19:00:15 10° SW 19:03:53 30° SSE 19:06:47 14° ESE visible
24 Feb 3.2 20:40:48 10° WSW 20:42:10 20° WSW 20:42:10 20° WSW visible
25 Feb 1.6 18:50:03 10° SW 18:53:52 37° SSE 18:57:32 11° E visible
25 Feb 2.6 20:30:50 10° W 20:32:55 28° WSW 20:32:55 28° WSW visible
26 Feb 1.4 18:39:56 10° WSW 18:43:53 45° SSE 18:47:50 10° E visible
26 Feb 2.0 20:20:52 10° W 20:23:37 41° WSW 20:23:37 41° WSW visible
27 Feb 1.2 20:10:55 10° W 20:14:18 58° WSW 20:14:18 58° WSW visible
28 Feb 0.7 20:00:58 10° W 20:04:59 82° SW 20:04:59 82° SW visible
01 Mar 0.6 19:51:01 10° W 19:55:09 81° S 19:55:39 67° ESE visible
02 Mar 0.7 19:41:04 10° W 19:45:12 76° S 19:46:19 46° ESE visible
03 Mar 0.8 19:31:07 10° W 19:35:14 70° S 19:37:01 32° ESE visible
